Location: Celina Elementary School
(33.3262°N, 96.7767°W)
Time: 08:57:23
(UTC+00:00)

SKYMED 2 - Pass Details

Date: 26 November 2021
Orbit: 621 x 623 km, 97.9° (Epoch: 19 January)

Event Time Altitude Azimuth Distance (km) Brightness Sun altitude
Rises 12:00:24 0° 175° (S) 2,885 7.3 -14.2°
Reaches altitude 10° 12:02:36 10° 179° (S) 1,984 6.4 -13.7°
Maximum altitude 12:06:51 59° 259° (W) 718 3.6 -12.9°
Drops below altitude 10° 12:11:09 10° 340° (NNW) 1,998 5.8 -12.0°
Sets 12:13:23 0° 344° (NNW) 2,908 6.7 -11.6°
